Regional Weather Roundup
Issued by NWS Cleveland, OH

Home | Current Version | Previous Version | Graphics & Text | Print | Product List | Glossary On
Versions: 1 2 3 4 5 6 7 8 9 10 11 12 13 14 15 16 17 18 19 20 21 22 23 24 25 26 27 28 29 30 31 32 33 34 35 36 37 38 39 40 41 42 43 44 45 46 47 48 49 50
000
ASUS41 KCLE 292002
RWRCLE
OHIO REGIONAL WEATHER ROUNDUP
NATIONAL WEATHER SERVICE CLEVELAND, OH
400 PM EDT SAT AUG 29 2015

NOTE: "FAIR" INDICATES FEW OR NO CLOUDS BELOW 12,000 FEET WITH NO
SIGNIFICANT WEATHER AND/OR OBSTRUCTIONS TO VISIBILITY.

OHZ001>008-015>018-024>027-034-035-043-044-292100-
   NORTHWEST OHIO

CITY           SKY/WX    TMP DP  RH WIND       PRES   REMARKS
DEFIANCE       CLOUDY    79  66  64 SW6       30.06F
FINDLAY        CLOUDY    82  68  62 SW5       30.06F
TOLEDO EXPRESS CLOUDY    77  65  66 CALM      30.06F
TOLEDO EXEC    CLOUDY    80  64  58 S7        30.06F
LIMA           CLOUDY    81  67  62 S10       30.07F
$$

OHZ009>014-019>023-028>033-038-089-292100-
   NORTHEAST OHIO

CITY           SKY/WX    TMP DP  RH WIND       PRES   REMARKS
CLE-HOPKINS    MOSUNNY   83  62  49 S5        30.10F
CLE-LAKEFRONT  PTSUNNY   78  64  61 NE8       30.07F
CUY CO. ARPT   MOSUNNY   82  61  47 N9        30.10F
LORAIN-ELYRIA  MOSUNNY   82  62  50 CALM      30.08F
ASHTABULA      PTSUNNY   79  58  48 SW3       30.11F
AKRON-CANTON   PTSUNNY   83  61  47 S9        30.10F
WOOSTER        MOSUNNY   83  63  50 SW8       30.10F
MANSFIELD      PTSUNNY   81  65  58 S10       30.10F
YOUNGSTOWN     PTSUNNY   80  60  50 S3        30.12F
$$

OHZ042-051>053-060>062-070>072-077>081-292100-
  SOUTHWEST OHIO

CITY           SKY/WX    TMP DP  RH WIND       PRES   REMARKS
CINC-COVINGTON PTSUNNY   80  69  69 NW7       30.08F
CINC-LUNKEN    LGT RAIN  82  70  66 S5        30.07F
HAMILTON       PTSUNNY   85  67  54 SW6       30.08F
DAYTON         CLOUDY    82  67  60 W8        30.09F
WRIGHT-PAT AFB CLOUDY    84  64  50 SW14      30.07F
DAYTON GENERAL PTSUNNY   82  64  54 W7        30.08F
WILMINGTON     MOSUNNY   84  63  49 S9        30.09F
$$

OHZ036-037-039>041-045>050-054>059-063>069-073>076-082>088-292100-
  CENTRAL AND SOUTHEAST OHIO

CITY           SKY/WX    TMP DP  RH WIND       PRES   REMARKS
COLUMBUS       PTSUNNY   86  62  44 SW13      30.08F
OSU AIRPORT    PTSUNNY   87  62  43 W12       30.08F
BOLTON FIELD   NOT AVBL
RICKENBACK AFB MOSUNNY   86  64  46 SW7       30.07F
NEWARK         MOSUNNY   85  66  53 N5        30.08F
MARION         PTSUNNY   82  64  54 W14       30.09F
LANCASTER      MOSUNNY   86  62  44 SW9       30.09F
ZANESVILLE     PTSUNNY   87  58  37 W9        30.09F
NEW PHILLY     MOSUNNY   87  60  40 VRB7      30.10F
$$



USA.gov is the U.S. government's official web portal to all federal, state and local government web resources and services.